| time (UTC) | temp F | wind direction | speed knots | gust knots | rain 1hr in | rain 24hr in | rain mn in | humidity % | barometer mb |
| 20260508164559 | 56 | 80 | 0.0 | 3.5 | 0.00 | 0.01 | 0.00 | 37 | 1020.2 |
| 20260508163107 | 56 | 131 | 0.0 | 3.5 | 0.00 | 0.01 | 0.00 | 40 | 1020.1 |
| 20260508161559 | 55 | 115 | 0.0 | 2.6 | 0.00 | 0.01 | 0.00 | 38 | 1020.4 |
| 20260508160054 | 55 | 152 | 0.9 | 2.6 | 0.00 | 0.01 | 0.00 | 43 | 1020.6 |
| 20260508154555 | 55 | 136 | 0.9 | 2.6 | 0.00 | 0.01 | 0.00 | 43 | 1020.8 |
| 20260508153103 | 55 | 218 | 0.9 | 2.6 | 0.00 | 0.01 | 0.00 | 48 | 1020.9 |
| 20260508151548 | 54 | 110 | 0.0 | 2.6 | 0.00 | 0.01 | 0.00 | 43 | 1021.0 |
| 20260508150045 | 53 | 112 | 0.0 | 2.6 | 0.00 | 0.01 | 0.00 | 42 | 1021.2 |
| 20260508144543 | 52 | 102 | 0.9 | 4.3 | 0.00 | 0.01 | 0.00 | 46 | 1021.1 |
| 20260508143101 | 51 | 95 | 0.0 | 3.5 | 0.00 | 0.01 | 0.00 | 42 | 1021.2 |
| 20260508141540 | 50 | 101 | 0.0 | 2.6 | 0.00 | 0.01 | 0.00 | 37 | 1021.1 |
| 20260508140036 | 49 | 111 | 0.0 | 2.6 | 0.00 | 0.01 | 0.00 | 40 | 1021.1 |
| 20260508134537 | 48 | 99 | 0.0 | 2.6 | 0.00 | 0.01 | 0.00 | 42 | 1021.1 |
| 20260508133030 | 48 | 106 | 0.0 | 1.7 | 0.00 | 0.01 | 0.00 | 49 | 1020.9 |
| 20260508131526 | 46 | 91 | 0.0 | 0.9 | 0.00 | 0.01 | 0.00 | 53 | 1020.7 |
| 20260508130023 | 44 | 92 | 0.0 | 0.9 | 0.00 | 0.01 | 0.00 | 60 | 1020.6 |
| 20260508124523 | 42 | 92 | 0.0 | 0.9 | 0.00 | 0.01 | 0.00 | 64 | 1020.5 |
| 20260508123023 | 41 | 92 | 0.0 | 0.9 | 0.00 | 0.01 | 0.00 | 72 | 1020.3 |
| 20260508121518 | 40 | 105 | 0.0 | 0.9 | 0.00 | 0.01 | 0.00 | 67 | 1020.2 |
| 20260508120016 | 40 | 105 | 0.0 | 0.9 | 0.00 | 0.01 | 0.00 | 73 | 1020.0 |
| 20260508114514 | 39 | 43 | 0.0 | 0.9 | 0.00 | 0.05 | 0.00 | 78 | 1019.7 |
| 20260508113011 | 39 | 43 | 0.0 | 0.9 | 0.00 | 0.05 | 0.00 | 80 | 1019.4 |
| 20260508111514 | 39 | 43 | 0.0 | 0.9 | 0.00 | 0.05 | 0.00 | 79 | 1019.1 |
| 20260508110019 | 38 | 46 | 0.0 | 0.9 | 0.00 | 0.05 | 0.00 | 82 | 1018.8 |
| 20260508104505 | 38 | 46 | 0.0 | 0.9 | 0.00 | 0.08 | 0.00 | 82 | 1018.7 |
| 20260508103011 | 38 | 46 | 0.0 | 0.9 | 0.00 | 0.08 | 0.00 | 81 | 1018.4 |
| 20260508101505 | 38 | 46 | 0.0 | 0.9 | 0.00 | 0.08 | 0.00 | 79 | 1018.2 |
| 20260508100130 | 38 | 46 | 0.0 | 0.9 | 0.00 | 0.08 | 0.00 | 81 | 1017.8 |
| 20260508094558 | 38 | 46 | 0.0 | 0.9 | 0.00 | 0.09 | 0.00 | 81 | 1017.9 |
| 20260508093058 | 38 | 46 | 0.0 | 0.9 | 0.00 | 0.09 | 0.00 | 84 | 1017.9 |
| 20260508091610 | 38 | 46 | 0.0 | 0.9 | 0.00 | 0.09 | 0.00 | 85 | 1017.7 |
| 20260508090055 | 38 | 46 | 0.0 | 0.9 | 0.00 | 0.09 | 0.00 | 86 | 1017.7 |
| 20260508084553 | 38 | 46 | 0.0 | 0.9 | 0.00 | 0.09 | 0.00 | 88 | 1017.6 |
| 20260508083051 | 38 | 46 | 0.0 | 0.9 | 0.00 | 0.09 | 0.00 | 90 | 1017.6 |
| 20260508081608 | 39 | 46 | 0.0 | 0.9 | 0.00 | 0.09 | 0.00 | 90 | 1017.5 |
| 20260508080046 | 39 | 46 | 0.0 | 0.9 | 0.00 | 0.09 | 0.00 | 90 | 1017.4 |
| 20260508074545 | 39 | 45 | 0.0 | 0.9 | 0.00 | 0.09 | 0.00 | 91 | 1017.3 |
| 20260508073048 | 40 | 74 | 0.0 | 0.9 | 0.00 | 0.09 | 0.00 | 91 | 1017.3 |
| 20260508071541 | 40 | 139 | 0.0 | 0.9 | 0.00 | 0.09 | 0.00 | 91 | 1017.1 |
| 20260508070039 | 40 | 139 | 0.0 | 0.9 | 0.00 | 0.09 | 0.00 | 91 | 1017.1 |
| 20260508064538 | 41 | 136 | 0.0 | 2.6 | 0.00 | 0.10 | 0.00 | 91 | 1017.3 |
| 20260508063036 | 41 | 240 | 0.0 | 0.9 | 0.00 | 0.10 | 0.00 | 94 | 1017.1 |
| 20260508061535 | 42 | 240 | 0.0 | 1.7 | 0.00 | 0.10 | 0.00 | 93 | 1017.2 |
| 20260508060035 | 42 | 170 | 0.0 | 0.0 | 0.00 | 0.10 | 0.00 | 94 | 1017.3 |
| 20260508054605 | 43 | 170 | 0.0 | 1.7 | 0.00 | 0.10 | 0.00 | 93 | 1017.3 |
| 20260508053038 | 43 | 95 | 0.0 | 2.6 | 0.00 | 0.10 | 0.00 | 94 | 1017.3 |
| 20260508051524 | 43 | 77 | 0.0 | 1.7 | 0.00 | 0.10 | 0.00 | 94 | 1017.3 |
| 20260508050024 | 44 | 148 | 0.0 | 1.7 | 0.00 | 0.10 | 0.00 | 94 | 1017.0 |
| 20260508044519 | 44 | 218 | 0.0 | 2.6 | 0.00 | 0.10 | 0.00 | 95 | 1016.7 |
| 20260508043021 | 44 | 207 | 0.0 | 0.9 | 0.00 | 0.10 | 0.00 | 95 | 1016.6 |
| 20260508041516 | 44 | 207 | 0.0 | 0.9 | 0.00 | 0.10 | 0.00 | 95 | 1016.5 |
| 20260508040013 | 44 | 207 | 0.0 | 1.7 | 0.00 | 0.10 | 0.00 | 95 | 1016.3 |
| 20260508034513 | 44 | 340 | 0.0 | 0.9 | 0.00 | 0.10 | 0.10 | 95 | 1016.3 |
| 20260508033017 | 44 | 340 | 0.0 | 1.7 | 0.00 | 0.10 | 0.10 | 95 | 1016.3 |
| 20260508031513 | 44 | 340 | 0.0 | 0.9 | 0.00 | 0.10 | 0.10 | 95 | 1016.2 |
| 20260508030010 | 44 | 332 | 0.0 | 0.9 | 0.00 | 0.10 | 0.10 | 95 | 1016.0 |
| 20260508024508 | 44 | 332 | 0.0 | 0.9 | 0.00 | 0.15 | 0.10 | 95 | 1015.9 |
| 20260508023007 | 44 | 333 | 0.0 | 0.9 | 0.00 | 0.15 | 0.10 | 95 | 1015.8 |
| 20260508021505 | 43 | 246 | 0.0 | 0.9 | 0.00 | 0.15 | 0.10 | 95 | 1015.7 |
| 20260508020004 | 43 | 245 | 0.0 | 0.9 | 0.00 | 0.15 | 0.10 | 95 | 1015.4 |
| 20260508014503 | 43 | 245 | 0.0 | 0.9 | 0.00 | 0.20 | 0.10 | 95 | 1015.3 |
| 20260508013104 | 42 | 245 | 0.0 | 0.9 | 0.00 | 0.20 | 0.10 | 95 | 1015.1 |
| 20260508011615 | 42 | 245 | 0.0 | 0.9 | 0.00 | 0.20 | 0.10 | 94 | 1014.7 |
| 20260508010059 | 43 | 245 | 0.0 | 0.9 | 0.00 | 0.20 | 0.10 | 94 | 1014.5 |
| 20260508004555 | 43 | 245 | 0.0 | 0.9 | 0.00 | 0.21 | 0.10 | 93 | 1014.2 |
| 20260508003053 | 44 | 245 | 0.0 | 1.7 | 0.00 | 0.21 | 0.10 | 93 | 1014.1 |
| 20260508001550 | 45 | 136 | 0.0 | 1.7 | 0.00 | 0.21 | 0.10 | 92 | 1014.2 |
| 20260508000048 | 45 | 130 | 0.0 | 0.9 | 0.00 | 0.21 | 0.10 | 93 | 1014.1 |
| 20260507234547 | 45 | 133 | 0.0 | 1.7 | 0.00 | 0.22 | 0.10 | 94 | 1014.3 |
| 20260507233047 | 45 | 33 | 0.0 | 1.7 | 0.00 | 0.22 | 0.10 | 94 | 1014.0 |
| 20260507231547 | 45 | 34 | 0.0 | 1.7 | 0.00 | 0.22 | 0.10 | 94 | 1014.0 |
| 20260507230044 | 45 | 234 | 0.0 | 0.9 | 0.00 | 0.22 | 0.10 | 94 | 1013.9 |
| 20260507224546 | 45 | 234 | 0.0 | 1.7 | 0.00 | 0.23 | 0.10 | 95 | 1013.8 |
| 20260507223042 | 45 | 235 | 0.0 | 0.9 | 0.01 | 0.23 | 0.10 | 95 | 1013.5 |
| 20260507221540 | 45 | 235 | 0.0 | 1.7 | 0.01 | 0.23 | 0.10 | 95 | 1013.2 |
| 20260507220039 | 45 | 15 | 0.0 | 0.9 | 0.01 | 0.23 | 0.10 | 95 | 1013.0 |
| 20260507214545 | 45 | 8 | 0.0 | 0.9 | 0.01 | 0.23 | 0.10 | 95 | 1012.9 |
| 20260507213037 | 45 | 8 | 0.0 | 1.7 | 0.00 | 0.22 | 0.09 | 94 | 1012.7 |
| 20260507211540 | 45 | 330 | 0.0 | 2.6 | 0.00 | 0.22 | 0.09 | 94 | 1012.7 |
| 20260507210036 | 45 | 332 | 0.0 | 1.7 | 0.00 | 0.22 | 0.09 | 94 | 1012.4 |
| 20260507204531 | 46 | 274 | 0.0 | 6.1 | 0.00 | 0.22 | 0.09 | 94 | 1012.2 |
| 20260507203034 | 47 | 70 | 0.0 | 1.7 | 0.00 | 0.22 | 0.09 | 93 | 1012.0 |
| 20260507201524 | 47 | 181 | 0.0 | 1.7 | 0.00 | 0.22 | 0.09 | 94 | 1012.0 |
| 20260507200024 | 48 | 110 | 0.0 | 0.9 | 0.00 | 0.22 | 0.09 | 93 | 1011.9 |
| 20260507194527 | 48 | 37 | 0.0 | 0.9 | 0.00 | 0.22 | 0.09 | 93 | 1011.9 |
| 20260507193021 | 48 | 37 | 0.0 | 0.9 | 0.00 | 0.22 | 0.09 | 93 | 1012.0 |
| 20260507191518 | 49 | 113 | 0.0 | 1.7 | 0.00 | 0.22 | 0.09 | 93 | 1012.0 |
| 20260507190017 | 49 | 231 | 0.0 | 1.7 | 0.00 | 0.22 | 0.09 | 93 | 1011.9 |
| 20260507184514 | 50 | 104 | 0.0 | 1.7 | 0.00 | 0.22 | 0.09 | 91 | 1012.0 |
| 20260507183026 | 51 | 29 | 0.0 | 1.7 | 0.00 | 0.22 | 0.09 | 91 | 1012.0 |
| 20260507181509 | 51 | 51 | 0.0 | 0.9 | 0.00 | 0.22 | 0.09 | 91 | 1011.8 |
| 20260507180010 | 51 | 64 | 0.0 | 1.7 | 0.00 | 0.22 | 0.09 | 92 | 1011.8 |
| 20260507174511 | 52 | 198 | 0.0 | 1.7 | 0.00 | 0.22 | 0.09 | 91 | 1011.8 |
| 20260507173008 | 52 | 46 | 0.0 | 4.3 | 0.00 | 0.22 | 0.09 | 93 | 1011.7 |
| 20260507171507 | 53 | 52 | 0.0 | 4.3 | 0.00 | 0.22 | 0.09 | 93 | 1011.5 |
| 20260507170005 | 52 | 85 | 0.0 | 2.6 | 0.00 | 0.22 | 0.09 | 94 | 1011.4 |